Location: Unspecified
(0.0000°N, 0.0000°E)
Time: 16:05:04
(UTC+00:00)

STARS - Pass Details

Date: 10 December 2017
Orbit: 625 x 641 km, 98.3° (Epoch: 22 July)

Event Time Altitude Azimuth Distance (km) Brightness Sun altitude
Rises 18:26:19 0° 342° (NNW) 2,891 ? -7.7°
Reaches altitude 10° 18:29:10 10° 322° (NW) 1,990 ? -8.3°
Maximum altitude 18:31:55 17° 282° (WNW) 1,604 ? -8.9°
Drops below altitude 10° 18:34:40 10° 243° (WSW) 2,000 ? -9.6°
Sets 18:37:34 0° 222° (SW) 2,914 ? -10.2°
